CW3778 Weather Reports


time (UTC)temp
C
wind
direction
speed
KPH
gust
KPH
rain 1hr
cm
rain 24hr
cm
rain mn
cm
humidity
%
barometer
mb
20260504130318 12 221 3.2 6.4 0.00 0.08 0.00 1 1004.3
20260504100436 10 284 1.6 4.8 0.00 0.08 0.00 13 1004.6
20260504080528 11 310 1.6 4.8 0.00 0.08 0.00 3 1004.5
20260504070229 12 312 1.6 4.8 0.00 0.08 0.00 11 1005.4
20260504050528 13 239 1.6 4.8 0.00 0.08 0.00 21 1006.4
20260504045629 13 240 3.2 6.4 0.00 0.08 0.08 23 1006.4
20260504044729 13 240 4.8 6.4 0.00 0.08 0.08 24 1006.4
20260504043828 13 244 4.8 12.9 0.00 0.08 0.08 26 1006.3
20260504042929 13 237 4.8 8.0 0.00 0.08 0.08 27 1006.3
20260504042028 14 244 3.2 6.4 0.00 0.08 0.08 28 1006.3
20260504041129 14 244 4.8 8.0 0.00 0.08 0.08 29 1006.3
20260504040229 14 246 4.8 8.0 0.00 0.08 0.08 30 1006.2
20260504034429 14 235 4.8 8.0 0.00 0.08 0.08 32 1006.1
20260504033528 14 236 4.8 8.0 0.00 0.08 0.08 33 1006.2
20260504032629 15 238 4.8 8.0 0.00 0.08 0.08 34 1006.3
20260504031729 15 242 4.8 6.4 0.00 0.08 0.08 35 1006.3
20260504025929 15 245 4.8 6.4 0.00 0.08 0.08 38 1006.6
20260504025028 15 249 4.8 8.0 0.00 0.08 0.08 39 1006.5
20260504024128 15 250 3.2 6.4 0.00 0.08 0.08 39 1006.5
20260504023228 16 251 4.8 6.4 0.00 0.08 0.08 40 1006.4
20260504021429 16 251 3.2 6.4 0.00 0.08 0.08 41 1006.5
20260504020528 16 245 4.8 8.0 0.00 0.08 0.08 41 1006.4
20260504015628 16 231 3.2 6.4 0.00 0.08 0.08 41 1006.3
20260504013829 17 247 4.8 8.0 0.00 0.08 0.08 42 1006.2
20260504012928 17 241 4.8 9.7 0.00 0.08 0.08 42 1006.1
20260504012028 17 249 4.8 8.0 0.00 0.08 0.08 42 1006.1
20260504011128 17 250 4.8 8.0 0.00 0.08 0.08 42 1006.1
20260504010228 17 255 3.2 8.0 0.00 0.08 0.08 42 1006.2
20260504005328 18 271 1.6 6.4 0.00 0.08 0.08 42 1006.1
20260504004428 18 0 0.0 3.2 0.00 0.08 0.08 41 1006.1
20260504003528 18 273 1.6 3.2 0.00 0.08 0.08 40 1006.1
20260504002628 18 273 1.6 6.4 0.00 0.08 0.08 39 1006.0
20260504001729 19 269 3.2 6.4 0.00 0.08 0.08 39 1006.1
20260504000828 19 282 3.2 9.7 0.00 0.08 0.08 39 1006.1
20260503235928 19 259 4.8 9.7 0.00 0.08 0.08 39 1006.1
20260503235028 20 254 4.8 12.9 0.00 0.08 0.08 38 1006.1
20260503234128 20 262 3.2 9.7 0.00 0.08 0.08 38 1006.2
20260503233228 20 264 4.8 14.5 0.00 0.08 0.08 38 1006.2
20260503232328 20 270 3.2 11.3 0.00 0.08 0.08 38 1006.2
20260503225650 20 260 8.0 19.3 0.00 0.08 0.08 36 1006.3
20260503224750 20 245 6.4 16.1 0.00 0.08 0.08 36 1006.3
20260503223850 20 252 6.4 14.5 0.00 0.08 0.08 36 1006.4
20260503222050 20 270 8.0 22.5 0.00 0.08 0.08 35 1006.5
20260503221150 20 258 6.4 14.5 0.00 0.08 0.08 35 1006.5
20260503220250 20 255 8.0 17.7 0.00 0.08 0.08 36 1006.6
20260503215350 20 251 8.0 17.7 0.00 0.08 0.08 35 1006.6
20260503214450 20 241 6.4 16.1 0.00 0.08 0.08 36 1006.5
20260503213550 20 238 8.0 16.1 0.00 0.08 0.08 35 1006.7
20260503212650 20 242 8.0 16.1 0.00 0.08 0.08 35 1006.8
20260503211750 20 239 8.0 14.5 0.00 0.08 0.08 35 1007.0
20260503210850 20 256 8.0 17.7 0.00 0.08 0.08 35 1007.1
20260503205950 19 254 8.0 20.9 0.00 0.08 0.08 35 1007.3
20260503205050 19 240 11.3 19.3 0.00 0.08 0.08 35 1007.4
20260503204150 19 238 8.0 19.3 0.00 0.08 0.08 34 1007.7
20260503203250 19 236 8.0 19.3 0.00 0.08 0.08 34 1008.0
20260503202350 18 243 11.3 22.5 0.00 0.08 0.08 35 1008.1
20260503201450 18 253 11.3 25.7 0.00 0.08 0.08 34 1008.3
20260503195650 18 247 11.3 24.1 0.00 0.08 0.08 32 1008.5
20260503193850 18 238 9.7 22.5 0.00 0.08 0.08 28 1008.7
20260503192950 17 242 9.7 19.3 0.00 0.08 0.08 23 1008.8
20260503191150 17 234 8.0 22.5 0.00 0.08 0.08 15 1009.1
20260503190250 16 215 8.0 19.3 0.00 0.08 0.08 12 1009.3
20260503185350 16 211 8.0 16.1 0.00 0.08 0.08 9 1009.2
20260503183550 15 215 8.0 22.5 0.00 0.08 0.08 5 1009.5
20260503182650 15 203 9.7 22.5 0.00 0.08 0.08 2 1009.9
20260503181750 15 213 8.0 22.5 0.00 0.08 0.08 1 1010.0
20260503180850 14 199 6.4 16.1 0.00 0.08 0.08 1 1010.2
20260503175950 13 222 6.4 16.1 0.00 0.08 0.08 1 1010.4
20260503175050 13 199 8.0 17.7 0.00 0.08 0.08 1 1010.6
20260503174150 13 229 8.0 17.7 0.03 0.08 0.08 1 1010.7
20260503173250 12 201 4.8 14.5 0.03 0.08 0.08 1 1010.8
20260503172350 12 198 4.8 14.5 0.03 0.08 0.08 1 1011.2
20260503150850 11 254 8.0 16.1 0.00 0.00 0.00 1 1014.3